TimeEDT,TemperatureF,Dew PointF,Humidity,Sea Level PressureIn,VisibilityMPH,Wind Direction,Wind SpeedMPH,Gust SpeedMPH,PrecipitationIn,Events,Conditions,WindDirDegrees,DateUTC
12:51 AM,48.0,39.9,74,30.13,10.0,NNE,18.4,28.8,0.00,,Overcast,20,2012-10-28 04:51:00
1:51 AM,46.9,39.9,77,30.12,10.0,NNE,15.0,25.3,0.00,,Overcast,20,2012-10-28 05:51:00
2:51 AM,46.9,39.9,77,30.13,10.0,NNE,13.8,-,N/A,,Overcast,20,2012-10-28 06:51:00
3:51 AM,46.9,39.9,77,30.12,10.0,NNE,15.0,-,N/A,,Overcast,20,2012-10-28 07:51:00
4:51 AM,46.9,39.9,77,30.09,10.0,NNE,23.0,28.8,N/A,,Overcast,30,2012-10-28 08:51:00
5:51 AM,46.0,39.0,76,30.10,10.0,NNE,18.4,26.5,N/A,,Overcast,20,2012-10-28 09:51:00
6:51 AM,46.0,39.0,76,30.09,10.0,NNE,21.9,29.9,N/A,,Overcast,20,2012-10-28 10:51:00
7:51 AM,46.0,39.0,76,30.09,10.0,NNE,21.9,29.9,N/A,,Overcast,20,2012-10-28 11:51:00
8:51 AM,46.0,39.0,76,30.10,10.0,North,17.3,29.9,N/A,,Overcast,10,2012-10-28 12:51:00
9:51 AM,45.0,41.0,86,30.09,7.0,NNE,19.6,31.1,0.06,Rain,Rain,20,2012-10-28 13:51:00
10:30 AM,44.6,41.0,87,30.09,9.0,NNE,17.3,-,0.04,Rain,Rain,20,2012-10-28 14:30:00
10:44 AM,44.6,41.0,87,30.08,10.0,NNE,16.1,26.5,0.05,Rain,Light Rain,20,2012-10-28 14:44:00
10:51 AM,44.1,41.0,89,30.09,10.0,NNE,15.0,26.5,0.06,Rain,Light Rain,20,2012-10-28 14:51:00
11:51 AM,44.6,41.0,87,30.07,8.0,North,18.4,27.6,N/A,Rain,Light Rain,10,2012-10-28 15:51:00
12:25 PM,44.6,41.0,87,30.07,6.0,NNE,19.6,26.5,0.04,Rain,Rain,20,2012-10-28 16:25:00
12:51 PM,44.1,41.0,89,30.07,6.0,NNE,17.3,28.8,0.09,Rain,Rain,20,2012-10-28 16:51:00
1:51 PM,44.1,41.0,89,30.05,6.0,NNE,19.6,28.8,0.12,Rain,Rain,20,2012-10-28 17:51:00
2:17 PM,44.6,39.2,81,30.03,8.0,NNE,18.4,29.9,0.05,Rain,Rain,20,2012-10-28 18:17:00
2:26 PM,44.6,39.2,81,30.03,8.0,NNE,16.1,26.5,0.07,Rain,Rain,20,2012-10-28 18:26:00
2:51 PM,44.1,39.9,85,30.04,8.0,NNE,23.0,28.8,0.11,Rain,Rain,20,2012-10-28 18:51:00
3:51 PM,44.1,39.9,85,30.02,6.0,NNE,18.4,28.8,0.12,Rain,Rain,20,2012-10-28 19:51:00
4:07 PM,44.6,41.0,87,30.01,6.0,NNE,18.4,25.3,0.04,Rain,Rain,20,2012-10-28 20:07:00
4:29 PM,44.6,39.2,81,30.00,7.0,North,20.7,29.9,0.07,Rain,Rain,10,2012-10-28 20:29:00
4:51 PM,44.1,39.9,85,30.02,7.0,North,21.9,28.8,0.10,Rain,Rain,10,2012-10-28 20:51:00
5:23 PM,44.6,39.2,81,30.01,8.0,North,21.9,28.8,0.04,Rain,Rain,360,2012-10-28 21:23:00
5:51 PM,43.0,39.0,86,30.02,7.0,North,21.9,33.4,0.07,Rain,Light Rain,360,2012-10-28 21:51:00
6:12 PM,42.8,39.2,87,30.02,7.0,North,21.9,28.8,0.02,Rain,Rain,350,2012-10-28 22:12:00
6:51 PM,42.1,39.0,89,30.03,10.0,North,20.7,28.8,0.03,Rain,Light Rain,360,2012-10-28 22:51:00
7:45 PM,41.0,37.4,87,30.02,10.0,North,21.9,31.1,0.06,Rain,Light Rain,360,2012-10-28 23:45:00
7:51 PM,41.0,37.9,89,30.04,9.0,North,19.6,33.4,0.07,Rain,Light Rain,350,2012-10-28 23:51:00
8:35 PM,41.0,37.4,87,30.02,10.0,North,18.4,26.5,0.05,Rain,Light Rain,360,2012-10-29 00:35:00
8:51 PM,41.0,37.9,89,30.03,10.0,North,18.4,31.1,0.07,Rain,Light Rain,360,2012-10-29 00:51:00
9:51 PM,41.0,37.9,89,30.04,8.0,North,19.6,33.4,0.08,Rain,Light Rain,360,2012-10-29 01:51:00
10:08 PM,41.0,37.4,87,30.02,8.0,North,23.0,31.1,0.02,Rain,Rain,360,2012-10-29 02:08:00
10:21 PM,41.0,37.4,87,30.02,8.0,North,21.9,29.9,0.03,Rain,Rain,360,2012-10-29 02:21:00
10:51 PM,41.0,37.9,89,30.03,10.0,North,19.6,31.1,0.07,Rain,Light Rain,10,2012-10-29 02:51:00
11:04 PM,41.0,37.4,87,30.01,9.0,North,20.7,32.2,0.01,Rain,Light Rain,360,2012-10-29 03:04:00
11:46 PM,42.8,37.4,81,29.99,10.0,North,23.0,29.9,0.06,Rain,Light Rain,360,2012-10-29 03:46:00
11:51 PM,41.0,37.9,89,30.01,9.0,North,21.9,31.1,0.06,Rain,Light Rain,10,2012-10-29 03:51:00